{"data":{"norad_id":52679,"intl_designator":"2022-053Z","name":"STARLINK-4031","alt_names":[],"object_type":"PAYLOAD","status":"ACTIVE","operator":null,"country":"US","launch_date":"2022-05-18","launch_site_code":"AFETR","launch_vehicle":null,"mission":null,"orbit_class":"UNKNOWN","rcs_meters":null,"size_class":null,"mass_kg":null,"dimensions":null,"purposes":["comms"],"wikipedia_slug":null,"has_3d_model":false,"image_url":null,"decayed_at":null,"tle_current":{"epoch":"2026-05-25T01:20:31.151040Z","epoch_age_seconds":77109,"freshness":"FRESH","line1":"1 52679U 22053Z   26145.05591610  .00000764  00000+0  66089-4 0  9995","line2":"2 52679  53.2141 161.2996 0001005  83.9351 276.1756 15.08840754222660","mean_motion":15.08840754,"eccentricity":0.0001005,"inclination_deg":53.2141,"raan_deg":161.2996,"arg_perigee_deg":83.9351,"mean_anomaly_deg":276.1756,"bstar":6.6089e-5,"rev_number":22266,"period_min":95.437506985578,"perigee_km":539.04583754124,"apogee_km":540.43633103618,"semimajor_km":6917.8780842887,"source":"CELESTRAK","updated_at":"2026-05-25T13:38:17.234078Z"}}}